When you browse on this site, cookies collect data to enhance your experience and personalize the content and advertising you see.
Visit our Privacy Policy to learn more. By continuing to use the site, you agree to this use of cookies and data.
  • In Sweden
  • List of Countries
  • For 7 days
  • Water Temperature
  • Satellite Maps
  • Weather Map
  • Weather Widgets
  • user-avatar
    Login

    Hourly Weather Anekal

    Today, 16 December, Sunday

    Time Temperature Precipitation Wind Pressure Humidity
    00:00 +18°C° 0 mm 4 mps 683 mmHg 86%
    01:00 +18°C° 0 mm 4 mps 682 mmHg 84%
    02:00 +18°C° 0 mm 4 mps 682 mmHg 83%
    03:00 +17°C° 0 mm 3 mps 682 mmHg 83%
    04:00 +17°C° 0 mm 3 mps 682 mmHg 83%
    05:00 +17°C° 0 mm 3 mps 682 mmHg 83%
    06:00 +18°C° 0 mm 3 mps 682 mmHg 80%
    07:00 +18°C° 0 mm 4 mps 683 mmHg 77%
    08:00 +19°C° 0 mm 4 mps 683 mmHg 74%
    09:00 +20°C° 0 mm 4 mps 683 mmHg 69%
    10:00 +22°C° 0 mm 4 mps 683 mmHg 64%
    11:00 +23°C° 0 mm 4 mps 683 mmHg 58%
    12:00 +25°C° 0 mm 4 mps 683 mmHg 55%
    13:00 +25°C° 0 mm 4 mps 682 mmHg 53%
    14:00 +26°C° 0 mm 4 mps 682 mmHg 50%
    15:00 +25°C° 0 mm 4 mps 681 mmHg 54%
    16:00 +23°C° 0 mm 4 mps 681 mmHg 58%
    17:00 +22°C° 0 mm 3 mps 681 mmHg 62%
    18:00 +21°C° 0 mm 3 mps 681 mmHg 63%
    19:00 +20°C° 0 mm 3 mps 682 mmHg 64%
    20:00 +19°C° 0 mm 3 mps 682 mmHg 65%
    21:00 +19°C° 0 mm 3 mps 682 mmHg 66%
    22:00 +19°C° 0 mm 3 mps 682 mmHg 66%
    23:00 +18°C° 0 mm 3 mps 682 mmHg 67%

    Tomorrow, 17 December, Monday

    Time Temperature Precipitation Wind Pressure Humidity
    00:00 +18°C° 0 mm 3 mps 682 mmHg 67%
    01:00 +17°C° 0 mm 2 mps 682 mmHg 67%
    02:00 +17°C° 0 mm 2 mps 681 mmHg 67%
    03:00 +17°C° 0 mm 2 mps 681 mmHg 66%
    04:00 +16°C° 0 mm 2 mps 681 mmHg 66%
    05:00 +16°C° 0 mm 2 mps 681 mmHg 65%
    06:00 +17°C° 0 mm 2 mps 682 mmHg 63%
    07:00 +18°C° 0 mm 3 mps 682 mmHg 60%
    08:00 +19°C° 0 mm 3 mps 683 mmHg 57%
    09:00 +21°C° 0 mm 3 mps 683 mmHg 51%
    10:00 +23°C° 0 mm 4 mps 683 mmHg 44%
    11:00 +26°C° 0 mm 4 mps 683 mmHg 38%
    12:00 +27°C° 0 mm 4 mps 683 mmHg 36%
    13:00 +27°C° 0 mm 4 mps 682 mmHg 34%
    14:00 +28°C° 0 mm 4 mps 681 mmHg 32%
    15:00 +27°C° 0 mm 3 mps 681 mmHg 36%
    16:00 +26°C° 0 mm 3 mps 681 mmHg 40%
    17:00 +25°C° 0 mm 2 mps 681 mmHg 44%
    18:00 +23°C° 0 mm 2 mps 681 mmHg 44%
    19:00 +21°C° 0 mm 2 mps 682 mmHg 44%
    20:00 +20°C° 0 mm 2 mps 682 mmHg 45%
    21:00 +19°C° 0 mm 2 mps 682 mmHg 45%
    22:00 +19°C° 0 mm 2 mps 683 mmHg 45%
    23:00 +18°C° 0 mm 2 mps 683 mmHg 45%

    Day after tomorrow, 18 December, Tuesday

    Time Temperature Precipitation Wind Pressure Humidity
    00:00 +18°C° 0 mm 2 mps 682 mmHg 47%
    01:00 +18°C° 0 mm 1 mps 682 mmHg 48%
    02:00 +18°C° 0 mm 1 mps 681 mmHg 49%
    03:00 +16°C° 0 mm 1 mps 681 mmHg 52%
    04:00 +16°C° 0 mm 2 mps 681 mmHg 55%
    05:00 +16°C° 0 mm 2 mps 681 mmHg 58%
    06:00 +17°C° 0 mm 2 mps 682 mmHg 60%
    07:00 +18°C° 0 mm 2 mps 683 mmHg 62%
    08:00 +19°C° 0 mm 2 mps 684 mmHg 63%
    09:00 +21°C° 0 mm 2 mps 684 mmHg 55%
    10:00 +25°C° 0 mm 2 mps 684 mmHg 47%
    11:00 +27°C° 0 mm 2 mps 684 mmHg 39%
    12:00 +27°C° 0 mm 2 mps 683 mmHg 37%
    13:00 +28°C° 0 mm 2 mps 682 mmHg 34%
    14:00 +29°C° 0 mm 2 mps 682 mmHg 31%
    15:00 +28°C° 0 mm 2 mps 682 mmHg 35%
    16:00 +27°C° 0 mm 2 mps 681 mmHg 39%
    17:00 +26°C° 0 mm 1 mps 681 mmHg 42%
    18:00 +24°C° 0 mm 2 mps 682 mmHg 45%
    19:00 +23°C° 0 mm 2 mps 682 mmHg 47%
    20:00 +21°C° 0 mm 2 mps 683 mmHg 49%
    21:00 +20°C° 0 mm 2 mps 682 mmHg 52%
    22:00 +19°C° 0 mm 2 mps 682 mmHg 55%
    23:00 +19°C° 0 mm 2 mps 682 mmHg 58%

    19 December, Wednesday

    Time Temperature Precipitation Wind Pressure Humidity
    00:00 +18°C° 0 mm 2 mps 682 mmHg 61%
    01:00 +17°C° 0 mm 2 mps 681 mmHg 65%
    02:00 +17°C° 0 mm 2 mps 681 mmHg 68%
    03:00 +16°C° 0 mm 2 mps 681 mmHg 71%
    04:00 +16°C° 0 mm 1 mps 681 mmHg 75%
    05:00 +16°C° 0 mm 1 mps 681 mmHg 78%
    06:00 +18°C° 0 mm 1 mps 682 mmHg 76%
    07:00 +18°C° 0 mm 2 mps 683 mmHg 74%
    08:00 +19°C° 0 mm 2 mps 684 mmHg 72%
    09:00 +21°C° 0 mm 2 mps 684 mmHg 66%
    10:00 +24°C° 0 mm 2 mps 684 mmHg 59%
    11:00 +25°C° 0 mm 2 mps 684 mmHg 52%
    12:00 +26°C° 0 mm 2 mps 683 mmHg 48%
    13:00 +27°C° 0 mm 1 mps 683 mmHg 44%
    14:00 +28°C° 0 mm 1 mps 682 mmHg 40%
    15:00 +28°C° 0 mm 1 mps 682 mmHg 43%
    16:00 +27°C° 0 mm 1 mps 682 mmHg 46%
    17:00 +26°C° 0 mm 1 mps 682 mmHg 49%
    18:00 +25°C° 0 mm 1 mps 682 mmHg 53%
    19:00 +23°C° 0 mm 1 mps 683 mmHg 56%
    20:00 +22°C° 0 mm 1 mps 683 mmHg 60%
    21:00 +21°C° 0 mm 1 mps 683 mmHg 64%
    22:00 +20°C° 0 mm 2 mps 683 mmHg 68%
    23:00 +19°C° 0 mm 2 mps 683 mmHg 73%

    20 December, Thursday

    Time Temperature Precipitation Wind Pressure Humidity
    00:00 +19°C° 0 mm 2 mps 682 mmHg 77%
    01:00 +18°C° 0 mm 2 mps 682 mmHg 81%
    02:00 +17°C° 0 mm 2 mps 681 mmHg 85%
    03:00 +17°C° 0 mm 2 mps 682 mmHg 87%
    04:00 +17°C° 0 mm 2 mps 682 mmHg 88%
    05:00 +17°C° 0 mm 2 mps 682 mmHg 89%
    06:00 +18°C° 0 mm 2 mps 682 mmHg 83%
    07:00 +19°C° 0 mm 2 mps 683 mmHg 77%
    08:00 +20°C° 0 mm 3 mps 684 mmHg 70%
    09:00 +22°C° 0 mm 3 mps 684 mmHg 64%
    10:00 +25°C° 0 mm 3 mps 684 mmHg 57%
    11:00 +27°C° 0 mm 4 mps 684 mmHg 51%
    12:00 +27°C° 0 mm 3 mps 683 mmHg 48%
    13:00 +28°C° 0 mm 3 mps 683 mmHg 46%
    14:00 +29°C° 0 mm 3 mps 682 mmHg 43%
    15:00 +28°C° 0 mm 3 mps 682 mmHg 48%
    16:00 +27°C° 0 mm 3 mps 682 mmHg 53%
    17:00 +26°C° 0 mm 3 mps 682 mmHg 58%
    18:00 +25°C° 0 mm 3 mps 682 mmHg 64%
    19:00 +22°C° 0 mm 3 mps 682 mmHg 71%
    20:00 +21°C° 0 mm 3 mps 683 mmHg 78%
    21:00 +20°C° 0 mm 3 mps 683 mmHg 81%
    22:00 +20°C° 0 mm 2 mps 682 mmHg 84%
    23:00 +19°C° 0 mm 2 mps 682 mmHg 86%

    21 December, Friday

    Time Temperature Precipitation Wind Pressure Humidity
    00:00 +19°C° 0 mm 2 mps 682 mmHg 87%
    01:00 +19°C° 0 mm 2 mps 681 mmHg 89%
    02:00 +19°C° 0 mm 2 mps 681 mmHg 90%
    03:00 +19°C° 0 mm 2 mps 681 mmHg 89%
    04:00 +19°C° 0 mm 2 mps 681 mmHg 89%
    05:00 +19°C° 0 mm 2 mps 681 mmHg 89%
    06:00 +20°C° 0 mm 2 mps 682 mmHg 86%
    07:00 +20°C° 0 mm 2 mps 683 mmHg 83%
    08:00 +21°C° 0 mm 3 mps 683 mmHg 80%
    09:00 +22°C° 0 mm 3 mps 683 mmHg 76%
    10:00 +25°C° 0 mm 3 mps 683 mmHg 72%
    11:00 +26°C° 0 mm 4 mps 683 mmHg 68%
    12:00 +27°C° 0.1 mm 3 mps 683 mmHg 66%
    13:00 +27°C° 0.1 mm 3 mps 682 mmHg 64%
    14:00 +28°C° 0.1 mm 3 mps 681 mmHg 62%
    15:00 +27°C° 0.5 mm 3 mps 681 mmHg 66%
    16:00 +26°C° 0.5 mm 3 mps 681 mmHg 70%
    17:00 +25°C° 0.5 mm 4 mps 681 mmHg 74%
    18:00 +23°C° 0.5 mm 4 mps 682 mmHg 78%
    19:00 +22°C° 0.5 mm 4 mps 682 mmHg 82%
    20:00 +21°C° 0.5 mm 4 mps 683 mmHg 86%
    21:00 +21°C° 0.1 mm 3 mps 683 mmHg 87%
    22:00 +21°C° 0.1 mm 3 mps 682 mmHg 88%
    23:00 +21°C° 0.1 mm 3 mps 682 mmHg 89%
    Show more